Location: Hilton Head Island
(32.2163°N, 80.7526°W)
Time: 00:09:34
(UTC-05:00)

Vanguard 1 - Pass Details

Date: 22 February 2026
Orbit: 653 x 3818 km, 34.2° (Epoch: 5 March)

Event Time Altitude Azimuth Distance (km) Brightness Sun altitude
Rises 20:36:32 0° 288° (WNW) 6,237 15.3 -30.6°
Reaches altitude 10° 20:40:11 10° 284° (WNW) 5,569 14.8 -31.3°
Maximum altitude 20:58:00 54° 213° (SSW) 4,134 13.1 -35.0°
Enters shadow 21:12:02 28° 154° (SSE) 5,479 13.4 -37.9°
Drops below altitude 10° 21:20:16 10° 143° (SE) 6,723 - -39.6°
Sets 21:25:19 0° 139° (SE) 7,537 - -40.7°
